This is the latest recevied weather packets stored in our database for station/object K0NV. If no packets are shown the sender has not sent any weather packets the latest 10 day(s).
| Time | Temp. | Humidity | Pressure | Rain* | Wind** | Luminosity | Snow |
|---|---|---|---|---|---|---|---|
| 1777977882 | 15° C | 99% | 1007.8 hPa | 0 mm | - | 0 W/m² | - |
| 1777977579 | 15° C | 99% | 1006.9 hPa | 0 mm | - | 0 W/m² | - |
| 1777977277 | 15° C | 99% | 1007.8 hPa | 0 mm | - | 0 W/m² | - |
| 1777976974 | 15° C | 99% | 1007.1 hPa | 1.27 mm | - | 0 W/m² | - |
| 1777976671 | 15° C | 99% | 1007.1 hPa | 1.27 mm | - | 0 W/m² | - |
| 1777976367 | 14.44° C | 99% | 1007.2 hPa | 0 mm | - | 0 W/m² | - |
| 1777976067 | 14.44° C | 99% | 1007.1 hPa | 0 mm | - | 0 W/m² | - |
| 1777975763 | 14.44° C | 99% | 1007.1 hPa | 1.78 mm | - | 0 W/m² | - |
| 1777975460 | 15° C | 99% | 1006.7 hPa | 1.78 mm | - | 0 W/m² | - |
| 1777975155 | 14.44° C | 99% | 1006.5 hPa | 0 mm | - | 0 W/m² | - |
| 1777974853 | 14.44° C | 99% | 1006 hPa | 0 mm | - | 0 W/m² | - |
| 1777974549 | 14.44° C | 99% | 1006.2 hPa | 0 mm | - | 0 W/m² | - |
| 1777974246 | 14.44° C | 99% | 1006.2 hPa | 0 mm | - | 0 W/m² | - |
| 1777973941 | 14.44° C | 99% | 1006 hPa | 0 mm | - | 0 W/m² | - |
| 1777973639 | 14.44° C | 99% | 1006 hPa | 0 mm | - | 0 W/m² | - |
| 1777973336 | 15° C | 98% | 1006 hPa | 1.27 mm | - | 0 W/m² | - |
| 1777973034 | 15° C | 98% | 1005.8 hPa | 1.27 mm | - | 0 W/m² | - |
| 1777972731 | 15° C | 98% | 1005.4 hPa | 0 mm | - | 0 W/m² | - |
| 1777972429 | 15° C | 98% | 1005.4 hPa | 0 mm | - | 0 W/m² | - |
| 1777972127 | 14.44° C | 98% | 1005.1 hPa | 0 mm | - | 0 W/m² | - |
| 1777971825 | 14.44° C | 98% | 1005.3 hPa | 0 mm | - | 0 W/m² | - |
| 1777971522 | 14.44° C | 99% | 1004.5 hPa | 0 mm | - | 0 W/m² | - |
| 1777971220 | 14.44° C | 99% | 1004.2 hPa | 1.78 mm | - | 0 W/m² | - |
| 1777970917 | 15° C | 99% | 1005 hPa | 3.05 mm | - | 0 W/m² | - |
| 1777970615 | 15° C | 99% | 1005.5 hPa | 3.05 mm | - | 0 W/m² | - |
* Rain latest hour (hover to see other rain measurements)
** Current wind speed in m/s (hover to see current wind gust speed)